Погода Алматы

Поиск расширенной информации на нашем сайте:

Полезная информация:

Новости сайта



02.01.2020
Опубликован Долгосрочный прогноз погоды по городам России и ближнего зарубежья на январь 2020 года.
Карты: Прогноз на январь и февраль 2020 года, Сравнение прогнозируемой аномалии приземной температуры воздуха на январь 2020 года по разным моделям.




Погода Алматы - сегодня

Время (UTC), дата Ветер
(°,м/с) 
Видим.   Явления Облачность Т
(°С)
Тd
(°С)
f(%) Тe
(°С)
Pmin
(гПа)
dP
(гПа)
Po
(мм)
O2
(г/м3)
Тmin Tmax R s Состояние
почвы
00 19.01.20 210 (ЮЗ) 1{04}  н/о    ясно 
-8.9 -11.7 80 -9  1024.4  -1.1  689  288           
03 19.01.20 тихо ()   20000 м    3/0 верхняя 
[Ci fib]
-9.1 -11.9 80 -9  1025.4  0.8  690  289        19  равномерный
сухой снег
100% 
06 19.01.20 тихо ()   20000 м    3/0 верхняя 
[Ci fib]
-3.7 -10.4 60 -4  1022.8  -0.4  690  283  -9.7         
09 19.01.20 тихо ()   20000 м    3/0 верхняя 
[Ci fib]
+0.5 -9.7 46 +1  1019.5  -1.4  689  278           
12 19.01.20 тихо ()   20000 м    3/0 верхняя 
[Ci fib]
-1.8 -10.1 53 -2  1021.4  0.9  689  280           
15 19.01.20 060 (СВ) н/о    10/0 средняя, верхняя 
[Ac As|Ci]
-0.5 -9.3 51 1022.9  1.8  691  280    +0.7       
18 19.01.20 тихо ()   н/о    4/0 верхняя 
[Ci fib]
+1.1 -11.1 40 +1  1022.8  0.5  691  278    +0.7       
21 19.01.20 тихо ()   н/о    8/0 средняя, верхняя 
[Ac trans|Ci]
-1.9 -11.7 47 -2  1025.4  1.3  692  282           
00 20.01.20 тихо ()   н/о    8/0 
-1.4 -11.3 47 -1  1026.3  0.9  693  281           
03 20.01.20 тихо ()   20000 м    10/8 600 м кучево-дожд., средняя 
[Cb cap|Ac As]
-0.9 -9.5 52 -1  1026.3  0.2  693  281        18  равномерный
сухой снег
100% 
06 20.01.20 тихо ()   4000 м  слаб. ливневой снег  10/10 600 м кучево-дожд. 
[Cb cap]
-0.9 -1.9 93 -1  1026.6  0.4  693  280  -2.3         
09 20.01.20 тихо ()   10 км  в посл. час ливневой снег  10/6 600 м кучево-дожд., средняя 
[Cb cap|As op]
+0.7 -1.5 85 +1  1024.1  -1.7  692  278           
12 20.01.20 020 (С) 10 км  {ливн. осадки}  10/0 средняя, верхняя 
[Sc|Ac trans|Ci fib]
+0.3 -4 73 +1  1024.9  0.6  692  279           
15 20.01.20 тихо ()   н/о    6/0 верхняя 
[Ci fib]
-2.1 -5.1 80 -2  1026.4  0.4  693  282    +2       
18 20.01.20 тихо ()   н/о    3/0 верхняя 
[Ci fib]
-3.7 -6.1 83 -4  1026.1  -0.8  692  283    +2  0.3     
21 20.01.20 тихо ()   н/о  {туман}  ясно 
-5.5 -8 83 -6  1026.7  -0.2  692  285           
00 21.01.20 тихо () {03}  н/о  {туман}  ясно 
-5.9 -10 73 -6  1026.6  -0.2  692  286           
03 21.01.20 тихо ()   20000 м    10/0 верхняя 
[Cc]
-6 -9 79 -6  1027.7  693  286        19  равномерный
мокрый или
старый снег
100% 
06 21.01.20 020 (С) 20000 м    3/0 средняя, верхняя 
[Ac lent|Ci]
+1.5 -6.2 57 +2  1024.2  -0.5  692  278  -6.3         
09 21.01.20 360 (С) 10 км    3/1 1000 м средняя, верхняя 
[Cu hum|Ac trans|Ci fib]
+3.1 -5.5 53 +4  1022.6  -0.9  692  276           
12 21.01.20 тихо ()   1000 м  дым  8/0 верхняя 
[Ci sp]
-1 -5 74 -1  1025  0.8  692  280           
15 21.01.20 тихо ()   н/о  дым  8/0 средняя, верхняя 
[Ac und|Ci sp]
-2.5 -5.4 80 -3  1026.1  0.4  692  282    +3.8       
18 21.01.20 тихо ()   н/о    8/0 средняя 
[Ac trans]
-3.3 -5.6 84 -3  1025.8  -0.5  692  283    +3.8       
21 21.01.20 тихо ()   н/о    10/0 средняя, верхняя 
[Ac trans|Ci fib]
-4.5 -6.8 84 -5  1026.3  -0.1  692  284           
00 22.01.20 270 (З) 1{02}  н/о    10/4 600 м кучево-дожд., средняя 
[Cb cap|Ac As]
-4.7 -7.7 79 -4  1027.6  1.1  693  285           
Время (UTC), дата Ветер
(°,м/с) 
Видим.   Явления Облачность Т
(°С)
Тd
(°С)
f(%) Тe
(°С)
Pmin
(гПа)
dP
(гПа)
Po
(мм)
O2
(г/м3)
Тmin Tmax R s Состояние
почвы

Для получения пояснительной информации подведите курсор к названию столбца.

ПОГОДА Алматы - архив

Всё, что Вы хотите узнать о погоде Алматы - удобно и подробно!

Выберите нужную дату (начиная с 1 января 2019* года) и нажмите кнопку "Найти".
Будут отображены архивные сводки погоды по пункту Алматы, начиная с указанной даты.


Отображать данные в формате CSV (для использования в таблицах Excel)


Внимание! Наш архив погоды предназначен исключительно для личного некоммерческого использования в познавательных целях. Если Вам необходимы официальные справки о состоянии погоды (для производственных, юридических, коммерческих и т.п. целей), обращайтесь в органы Росгидромета.

*Примечание: данная дата относится к архиву по метеостанциям СССР (Россия, СНГ, Балтия).
Архив по метеостанциям Зарубежной Европы и Азии (кроме Китая) хранится 10 дней, по другим регионам земного шара (Китай, Африка, Америка, Австралия, Океания) - 1 день.

Алматы - район местоположения метеостанции


Название, широта, долгота, высота метеостанции:
Алматы (город) 43.2°ш. 76.9°д. 851 м над ур. моря [Казахстан]

Дополнительная информация

В oтличие oт бoльшинства пoгoдных сайтoв мы публикуем пoдрoбную метеoинфoрмацию в детальнoм прoфессиoнальнoм фoрмате.

Характеристики температуры и влажнoсти вoздуха измеряются на высoте 2 м в тени вдали oт зданий и деревьев.
Скoрoсть ветра измеряется на высoте 10 м (на урoвне рoста челoвека скoрoсть ветра ниже в 1.5-2 раза). Если метеoстанция нахoдится в гoрoде или в лесу, тo скoрoсть ветра занижена на 2-4 м/с пo сравнению с oткрытым местoм. Скoрoсть ветра над акватoриями крупных рек и oзёр, а также на вершинах хoлмoв на 2-5 м/с выше, чем в oбычных услoвиях.
Атмoсфернoе давление в разных тoчках местнoсти мoжет значительнo oтличаться oт давления на метеoстанции, в зависимoсти oт услoвий рельефа (при пoдъёме на 10 м давление пoнижается примернo на 1 мм рт.ст.).